Theta_e
310 307 307 308 307 309 309 309 310 309 310 311 310 309 308 305 304 302 301 300 300 300 300 302 304 305 307 308 309 312 314 316 318 321 323 323 323 323 320 320 320 320 320 320
309 308 308 308 307 308 309 311 310 309 309 309 309 309 304 303 302 301 300 299 299 300 301 302 303 304 305 305 306 307 308 309 310 311 313 314 317 319 316 316 317 317 316 316
310 312 310 309 309 311 311 310 311 312 310 308 308 308 307 303 301 300 300 299 299 300 301 302 303 304 305 305 306 306 306 306 306 307 310 311 312 312 314 314 314 312 312 312
309 310 311 310 312 311 314 310 311 311 310 311 307 311 308 304 301 299 299 299 299 300 301 301 301 302 302 303 303 304 305 305 305 305 305 305 305 305 305 305 304 305 305 305
313 311 311 312 312 311 313 309 309 309 308 308 308 309 306 304 303 300 298 299 299 299 300 300 300 301 301 302 302 303 303 303 303 303 303 303 303 302 301 302 302 302 301 301
311 309 309 311 308 309 307 309 307 305 306 310 308 309 309 306 305 300 299 299 299 299 299 300 299 300 301 301 302 302 301 301 301 302 302 301 301 300 300 299 299 299 298 298
310 310 309 310 310 308 308 311 314 311 309 313 308 308 308 305 301 301 299 298 299 299 299 299 300 301 301 300 300 300 299 299 297 296 297 297 297 296 295 294 293 293 293 292
313 316 309 309 310 311 308 311 311 307 312 312 309 314 312 301 299 300 300 299 298 299 299 300 301 301 300 299 298 297 296 296 294 293 292 291 291 291 290 289 289 289 289 289
314 315 307 307 307 309 309 310 308 309 298 309 310 309 304 300 298 298 298 298 299 299 300 301 300 299 298 296 295 294 294 293 292 292 291 291 290 290 289 289 288 288 288 288
312 314 310 308 308 306 308 307 311 307 307 306 309 310 310 302 300 297 296 298 299 300 300 300 299 298 297 295 293 292 292 291 291 290 290 290 290 289 289 289 289 288 288 288
310 311 311 309 309 309 307 308 307 309 305 304 303 307 304 304 301 298 297 300 301 301 301 300 299 298 296 294 292 290 290 290 290 290 289 289 289 289 289 289 288 288 288 288
310 309 307 310 307 305 306 307 307 311 308 305 307 309 303 303 301 299 299 302 303 302 302 300 299 298 296 293 291 290 290 289 289 289 289 289 288 288 288 288 288 287 287 286
310 307 303 306 306 306 308 307 305 305 303 304 307 308 301 300 300 301 301 303 303 302 300 299 297 296 295 293 290 290 290 289 289 289 289 288 288 288 288 288 287 286 285 285
309 305 306 312 306 305 306 307 305 302 300 303 308 306 302 301 300 299 300 301 299 300 301 300 297 295 294 291 289 289 289 289 289 289 289 288 288 288 288 287 286 285 285 284
307 306 304 303 304 303 303 303 304 303 304 305 305 304 303 301 300 301 302 299 298 299 299 299 296 294 292 290 290 290 290 289 289 289 289 288 288 288 288 287 285 284 284 283
300 301 300 304 300 302 304 302 303 303 304 302 302 303 302 299 300 300 299 298 297 297 298 296 294 293 292 292 291 290 290 289 289 289 289 288 288 288 288 286 284 283 283 282
300 299 300 308 295 296 299 297 300 300 300 302 303 302 291 294 294 296 296 296 295 296 297 295 293 293 293 292 290 290 290 289 289 289 288 288 288 288 287 284 283 283 282 282
300 300 300 298 293 301 300 292 294 295 295 292 292 289 292 295 294 294 294 294 294 293 292 291 291 291 291 290 290 290 290 289 289 288 288 288 288 287 284 283 282 282 282 282
297 299 294 301 295 297 298 294 292 292 293 291 292 290 293 292 291 292 293 292 292 292 291 291 290 290 290 290 289 289 289 289 289 289 288 288 287 284 283 282 282 281 282 282
296 298 303 288 295 297 294 289 291 291 290 286 290 288 290 290 287 288 292 292 291 291 290 290 290 290 290 290 289 289 289 289 288 288 288 287 284 283 282 282 281 281 281 280
289 292 299 294 298 291 290 290 291 289 291 289 292 293 290 287 291 292 293 292 291 291 291 290 290 289 289 289 290 289 289 288 288 287 286 284 283 282 281 281 281 280 280 279
290 290 291 289 294 292 289 289 291 292 292 293 292 292 291 292 292 292 292 291 291 291 291 290 290 289 289 289 289 289 288 287 286 285 285 282 282 281 281 280 280 279 279 278
290 290 289 290 289 290 290 293 294 294 294 293 292 292 291 292 292 291 291 291 291 290 290 290 290 289 289 289 288 288 287 286 285 285 282 281 281 280 280 279 279 279 277 276
288 287 288 288 289 289 291 293 293 293 293 293 293 292 291 291 291 291 291 290 290 290 290 290 289 289 289 288 287 286 285 284 284 283 282 280 280 279 278 278 278 277 276 275
289 288 287 287 289 290 291 292 292 292 293 292 292 291 291 290 290 290 290 290 290 290 290 289 289 288 288 287 285 285 284 283 284 283 280 279 279 278 278 277 277 276 275 274
289 288 289 288 292 291 292 292 292 292 291 292 291 291 291 291 291 291 290 291 290 290 290 289 288 287 286 285 284 283 282 283 282 279 279 279 278 278 277 277 277 276 275 274
Wind_Speed
3 3 7 13 11 2 3 4 5 4 4 3 6 8 4 8 15 15 14 16 17 19 18 17 17 15 10 7 7 9 7 8 4 4 4 4 5 4 8 9 10 10 10 10
3 7 12 4 4 4 3 3 6 6 4 5 7 10 6 10 7 11 15 16 17 18 21 24 25 25 26 24 22 17 13 10 8 5 2 1 1 3 3 4 6 8 9 10
8 6 4 8 5 5 4 5 5 7 3 1 4 7 4 5 13 15 15 16 15 18 21 23 24 26 26 28 28 27 26 23 20 14 8 5 4 3 1 2 3 5 5 7
6 5 5 4 5 7 3 7 3 3 2 2 2 4 3 5 5 6 10 13 16 16 18 19 21 23 25 26 24 24 23 23 22 19 16 13 11 10 10 8 8 6 6 7
7 5 5 4 6 6 6 4 4 2 3 3 3 1 6 6 4 4 8 12 13 14 15 17 20 22 23 23 24 23 21 20 19 17 16 15 15 15 13 10 7 8 9 9
6 2 5 8 3 6 5 4 5 4 3 0 7 7 4 5 4 6 12 14 14 14 15 17 18 17 17 16 15 15 14 15 15 14 14 13 12 11 9 10 10 11 11 11
1 3 1 2 5 3 4 5 2 3 2 5 3 4 7 4 5 10 18 20 16 14 15 15 13 11 10 9 9 9 8 9 10 10 10 9 9 9 10 10 10 10 11 13
6 3 7 4 5 6 6 7 5 6 3 4 4 6 4 2 2 18 25 21 17 16 14 10 7 5 5 5 5 4 4 5 6 7 9 10 10 10 12 13 15 15 15 15
5 4 1 2 2 4 4 4 4 6 2 1 4 4 1 4 4 14 20 20 19 17 14 9 5 2 2 2 2 2 3 3 4 5 6 7 9 10 12 14 15 16 17 18
5 2 2 3 4 3 4 6 3 2 1 4 5 6 5 8 10 7 12 23 21 18 16 11 6 3 2 2 1 1 1 1 2 3 4 6 8 10 12 14 15 17 18 19
6 3 1 3 6 8 2 2 4 3 5 5 2 5 4 11 13 15 20 25 22 20 16 12 11 8 6 4 4 3 2 1 2 4 6 8 10 12 14 15 17 19 21 23
6 5 4 8 1 3 2 7 7 5 6 3 2 9 4 6 15 19 23 23 19 17 15 16 14 11 9 6 7 6 4 2 3 4 7 9 11 14 16 17 19 20 21 21
8 2 2 6 3 2 4 4 3 5 4 7 5 6 3 4 10 21 22 20 14 15 19 20 19 17 12 11 11 9 6 5 6 9 11 14 17 19 21 22 24 25 26 27
9 3 7 10 6 5 4 5 5 5 4 5 14 7 2 3 7 12 20 14 13 15 19 23 22 19 15 14 12 8 7 8 10 12 14 16 19 22 24 26 27 27 29 33
5 7 4 2 2 3 4 6 10 8 8 10 6 11 4 8 9 21 24 18 14 14 19 24 24 19 16 14 11 10 10 12 14 16 17 18 21 24 27 29 30 31 35 39
2 2 2 2 1 2 4 6 8 7 5 7 8 18 8 5 12 18 22 20 16 17 20 23 21 17 15 15 14 14 15 17 19 20 21 22 26 29 31 32 32 35 39 41
6 6 4 7 3 2 8 10 15 7 8 9 14 16 3 5 12 17 16 17 18 17 17 19 19 17 17 17 16 20 22 23 24 25 26 26 28 31 32 31 34 39 41 43
6 5 2 3 1 5 5 2 3 7 7 5 2 3 4 3 6 9 10 14 16 14 14 14 13 13 14 18 23 26 26 23 23 26 27 28 31 32 31 33 37 39 41 43
2 5 2 3 4 7 8 5 7 7 9 8 9 4 7 5 4 10 10 12 12 15 16 14 12 13 15 20 23 27 26 24 25 27 29 31 31 30 31 36 37 39 42 43
2 4 4 4 5 9 4 1 7 6 5 9 11 9 9 8 1 6 14 17 16 16 14 13 13 15 19 23 26 28 28 27 28 28 29 29 28 30 33 35 38 39 41 44
3 0 8 6 7 7 5 6 6 5 7 12 14 11 12 6 15 16 7 10 20 21 18 15 16 17 18 23 28 30 30 29 28 28 27 27 27 30 33 35 37 39 42 43
7 8 5 2 3 8 11 7 8 5 8 16 15 13 14 15 16 16 14 13 18 24 25 20 21 21 21 24 29 32 32 30 28 26 26 27 27 28 30 34 35 37 39 41
3 7 6 9 6 2 23 7 21 14 14 17 16 13 14 19 19 18 19 22 24 25 29 26 26 25 26 28 31 33 32 29 28 27 26 26 27 27 29 32 34 36 36 37
6 6 3 4 5 8 16 19 17 20 28 23 20 19 18 22 24 24 24 23 26 27 29 29 26 27 29 32 34 32 30 29 28 28 27 27 27 27 28 30 31 32 33 35
6 9 7 3 5 5 16 23 26 25 26 24 26 28 27 25 27 27 25 25 25 27 29 26 26 29 31 33 32 30 30 29 29 28 27 26 27 27 29 29 29 29 29 30
10 6 4 5 16 12 16 22 19 21 25 25 27 25 25 24 26 27 27 28 27 28 26 27 28 29 31 30 29 29 29 30 28 26 25 26 27 28 28 30 31 24 25 26
Wind_Direction
162 120 206 203 201 172 151 186 231 264 267 344 257 257 334 32 70 94 91 88 84 77 72 70 69 64 58 53 62 68 74 76 92 154 174 191 222 217 250 255 255 256 256 248
65 224 232 144 170 211 251 238 262 281 272 173 289 281 72 43 62 98 105 100 98 95 86 80 77 74 69 66 64 63 63 63 67 68 78 166 186 195 219 262 273 271 268 265
179 215 163 175 164 167 215 192 218 228 335 285 331 290 163 63 89 97 102 106 99 91 85 82 79 76 73 68 64 62 61 59 58 56 60 68 69 95 167 288 331 342 307 293
236 242 175 170 186 158 241 214 212 190 95 227 32 277 309 138 100 73 113 113 109 102 93 87 81 76 71 66 63 61 59 60 62 62 59 60 63 61 52 37 28 4 343 332
237 173 165 185 218 157 228 148 148 119 117 70 288 303 263 117 174 177 157 135 124 113 103 93 83 75 67 58 49 42 40 41 47 48 52 59 62 65 65 58 41 30 19 12
234 228 183 193 123 156 137 111 69 64 103 264 233 180 263 193 203 169 175 159 146 131 117 101 89 79 69 63 53 48 45 46 39 25 23 29 45 55 52 51 42 40 35 28
212 223 199 181 94 55 88 70 321 338 355 227 131 133 246 296 297 186 169 167 158 147 129 114 101 84 75 67 55 45 44 51 54 49 50 39 30 25 22 22 24 16 12 13
166 243 167 190 182 177 176 160 162 221 200 282 319 231 258 320 345 159 165 162 161 157 146 132 119 89 73 55 44 39 42 53 56 48 44 42 35 28 24 21 16 13 8 8
149 265 104 100 92 131 184 176 165 106 50 49 249 293 218 92 88 142 161 172 178 174 171 177 173 152 51 42 35 37 44 56 48 39 32 21 16 10 8 4 0 357 352 350
200 120 206 147 104 27 158 163 87 21 162 250 277 274 226 198 195 190 191 193 190 189 193 202 217 227 251 291 283 155 136 89 62 36 14 3 357 354 353 348 344 342 342 338
136 119 243 109 189 181 131 180 73 126 145 180 257 256 237 192 183 191 203 200 199 201 207 220 229 229 240 245 210 189 166 80 25 359 351 346 342 340 338 334 330 328 329 330
182 143 178 202 116 302 214 187 159 187 234 244 163 260 354 176 188 188 200 204 208 216 231 232 236 238 240 235 219 202 198 223 292 316 320 319 321 323 322 321 322 322 322 321
175 203 70 344 13 360 213 203 148 105 66 201 178 263 31 86 161 202 202 204 219 243 240 237 232 231 238 234 217 213 226 265 299 318 323 323 323 322 321 320 320 321 321 322
161 145 168 226 191 138 183 206 178 141 150 184 230 257 204 199 213 206 206 212 276 271 249 240 230 228 231 221 215 225 257 278 289 300 307 311 315 316 317 316 317 317 318 317
149 208 149 27 99 126 194 193 178 188 208 202 217 229 195 200 206 215 220 269 275 262 246 235 227 224 224 223 225 245 273 274 275 282 289 297 304 308 311 312 313 314 315 315
28 153 102 222 321 309 273 201 221 219 225 256 259 264 268 194 221 234 255 270 249 242 235 224 221 224 229 235 243 256 267 267 269 272 281 290 297 300 304 305 306 309 311 311
137 134 123 238 66 62 285 218 206 199 207 215 232 246 158 185 206 229 235 238 240 234 225 221 224 230 243 248 255 263 266 268 266 268 275 281 288 292 296 298 303 307 309 311
139 114 130 155 132 222 251 125 125 213 257 207 283 229 193 210 229 244 242 243 234 228 220 218 223 236 244 255 256 259 258 260 264 266 268 275 286 290 292 298 304 307 310 312
61 132 144 201 208 320 274 192 169 170 258 201 211 207 217 216 254 264 250 242 239 225 230 220 239 265 269 262 261 257 257 261 264 265 266 277 285 288 294 302 306 310 312 313
97 26 208 133 188 228 277 12 111 100 276 216 189 179 166 156 122 259 287 247 237 211 222 252 277 281 275 268 262 257 255 257 256 262 274 281 285 291 301 306 310 313 313 312
98 6 214 206 232 283 206 170 131 112 243 165 176 175 182 183 231 276 252 249 239 230 244 270 271 271 276 271 264 253 250 252 259 269 276 281 284 296 304 308 311 314 314 315
154 170 204 85 215 267 164 110 163 195 157 171 192 219 223 259 262 256 251 261 249 252 255 269 271 268 272 269 257 247 249 256 264 273 279 278 287 298 305 310 313 312 313 316
234 200 183 181 204 241 178 191 217 232 219 222 229 250 281 267 254 253 272 273 274 269 263 269 268 264 264 260 250 248 253 261 270 279 278 280 291 301 308 312 314 313 317 319
243 153 149 104 207 214 205 220 237 246 241 250 247 282 273 261 259 269 280 279 281 276 267 267 263 261 258 253 250 252 258 266 273 278 279 285 294 304 310 313 315 316 320 320
197 130 149 265 269 213 241 242 258 260 252 259 260 277 274 268 267 271 274 281 283 280 273 262 267 264 255 251 252 256 262 269 278 277 279 287 297 306 311 313 316 319 321 322
168 157 167 214 236 225 251 269 269 262 257 270 267 275 272 268 272 278 275 285 283 277 266 265 261 252 250 251 256 262 267 273 273 273 281 289 300 307 310 313 313 315 317 321